TimeEST,TemperatureF,Dew PointF,Humidity,Sea Level PressureIn,VisibilityMPH,Wind Direction,Wind SpeedMPH,Gust SpeedMPH,PrecipitationIn,Events,Conditions,WindDirDegrees,DateUTC
12:53 AM,10.9,-6.0,47,30.27,10.0,NW,6.9,-,N/A,,Clear,310,2013-02-07 05:53:00
1:53 AM,8.1,-6.0,53,30.30,10.0,NNW,15.0,-,N/A,,Clear,330,2013-02-07 06:53:00
2:53 AM,7.0,-8.0,51,30.32,10.0,NNW,13.8,-,N/A,,Clear,330,2013-02-07 07:53:00
3:53 AM,5.0,-9.0,52,30.35,10.0,NW,12.7,-,N/A,,Clear,320,2013-02-07 08:53:00
4:53 AM,3.9,-11.0,50,30.38,10.0,NW,10.4,19.6,N/A,,Clear,310,2013-02-07 09:53:00
5:53 AM,1.9,-11.0,55,30.42,10.0,NW,8.1,-,N/A,,Clear,320,2013-02-07 10:53:00
6:53 AM,1.9,-14.1,47,30.45,10.0,WNW,11.5,17.3,N/A,,Partly Cloudy,300,2013-02-07 11:53:00
7:53 AM,1.9,-13.0,50,30.49,10.0,NW,10.4,-,N/A,,Partly Cloudy,310,2013-02-07 12:53:00
8:53 AM,3.0,-16.1,41,30.52,10.0,NW,19.6,26.5,N/A,,Partly Cloudy,320,2013-02-07 13:53:00
9:53 AM,3.9,-16.1,39,30.54,10.0,NW,15.0,-,N/A,,Partly Cloudy,320,2013-02-07 14:53:00
10:53 AM,6.1,-17.0,34,30.56,10.0,NW,9.2,-,N/A,,Partly Cloudy,320,2013-02-07 15:53:00
11:53 AM,8.1,-18.0,30,30.55,10.0,NNW,15.0,-,N/A,,Clear,330,2013-02-07 16:53:00
12:53 PM,10.0,-18.0,27,30.54,10.0,NW,13.8,20.7,N/A,,Clear,310,2013-02-07 17:53:00
1:53 PM,10.9,-18.9,25,30.53,10.0,NNW,16.1,-,N/A,,Clear,340,2013-02-07 18:53:00
2:53 PM,12.0,-18.9,24,30.53,10.0,NW,13.8,19.6,N/A,,Clear,320,2013-02-07 19:53:00
3:53 PM,10.9,-18.9,25,30.54,10.0,NW,10.4,-,N/A,,Partly Cloudy,320,2013-02-07 20:53:00
4:53 PM,9.0,-17.0,30,30.55,10.0,North,6.9,-,N/A,,Partly Cloudy,350,2013-02-07 21:53:00
5:53 PM,7.0,-15.0,36,30.57,10.0,North,3.5,-,N/A,,Partly Cloudy,350,2013-02-07 22:53:00
6:53 PM,6.1,-15.0,38,30.58,10.0,North,4.6,-,N/A,,Partly Cloudy,360,2013-02-07 23:53:00
7:53 PM,6.1,-14.1,39,30.60,10.0,NE,9.2,-,N/A,,Clear,40,2013-02-08 00:53:00
8:53 PM,3.9,-15.0,41,30.61,10.0,NNE,5.8,-,N/A,,Clear,30,2013-02-08 01:53:00
9:53 PM,3.9,-15.0,41,30.62,10.0,Variable,3.5,-,N/A,,Clear,0,2013-02-08 02:53:00
10:53 PM,3.9,-14.1,43,30.62,10.0,NE,5.8,-,N/A,,Mostly Cloudy,40,2013-02-08 03:53:00
11:53 PM,3.0,-15.0,43,30.61,10.0,NE,8.1,-,N/A,,Overcast,50,2013-02-08 04:53:00